Location: Unspecified
(0.0000°N, 0.0000°E)
Time: 23:55:42
(UTC+00:00)

Vanguard 2 - Pass Details

Date: 07 October 2020
Orbit: 554 x 2937 km, 32.9° (Epoch: 28 October)

Event Time Altitude Azimuth Distance (km) Brightness Sun altitude
Rises 22:21:42 0° 237° (WSW) 6,457 12.5 -67.8°
Reaches altitude 10° 22:25:44 10° 237° (WSW) 5,599 12.1 -68.7°
Enters shadow 22:32:06 30° 240° (WSW) 4,316 11.3 -70.2°
Maximum altitude 22:43:44 81° 323° (NW) 2,886 - -73.0°
Drops below altitude 10° 22:59:09 10° 50° (NE) 4,892 - -76.5°
Sets 23:02:25 0° 52° (NE) 5,642 - -77.3°
